Regional Weather Roundup
Issued by NWS

Home | Current Version | Previous Version | Graphics & Text | Print | Product List | Glossary Off
Versions: 1 2 3 4 5 6 7 8 9 10 11 12 13 14 15 16 17 18 19 20 21 22 23 24 25 26 27 28 29 30 31 32 33 34 35 36 37 38 39 40 41 42 43 44 45 46 47 48 49 50

000
ASUS43 KMPX 021601
RWRMN
WEATHER ROUNDUP FOR MINNESOTA
NATIONAL WEATHER SERVICE TWIN CITIES/CHANHASSEN MN
1100 AM CDT THU JUL 02 2015


NOTE: "FAIR" INDICATES FEW OR NO CLOUDS BELOW 12,000 FEET WITH NO
SIGNIFICANT WEATHER AND/OR OBSTRUCTIONS TO VISIBILITY. N/A MEANS
CURRENT SKY AND/OR WEATHER CONDITIONS ARE NOT AVAILABLE.

MNZ060>063-068>070-021700-
   Twin Cities Metro

CITY           SKY/WX    TMP DP  RH WIND       PRES   REMARKS
TWIN CITIES    MOSUNNY   71  54  54 S3        30.04S
ST PAUL        SUNNY     71  53  52 SE3       30.04S
CRYSTAL        SUNNY     72  53  51 NW3       30.02F
BLAINE         SUNNY     73  55  53 CALM      30.04S
LAKEVILLE      SUNNY     68  54  60 CALM      30.04S
EDEN PRAIRIE   SUNNY     70  55  59 CALM      30.03S
SOUTH ST PAUL  SUNNY     70  54  57 NE3       30.03F
LAKE ELMO      FAIR      70  55  60 CALM      30.05S
$$
MNZ001>005-007-008-013>017-022>024-027-028-021700-
   Northwest Minnesota

CITY           SKY/WX    TMP DP  RH WIND       PRES   REMARKS
BEMIDJI        MOSUNNY   71  55  57 SW10      30.02R
HALLOCK        SUNNY     70  63  78 S10       29.94S
ROSEAU         SUNNY     70  61  73 S8        29.97S
WARROAD        SUNNY     68  61  77 SW8       29.97S
THIEF RVR FALL MOSUNNY   68  52  56 S13G20    29.99S
CROOKSTON      SUNNY     70  57  64 S14       29.98S
FOSSTON        SUNNY     66  54  63 S13       30.02R
DETROIT LAKES  SUNNY     70  54  56 SW14      30.03F
MOORHEAD       SUNNY     70  54  56 S10G17    30.00F
PARK RAPIDS    SUNNY     72  54  53 SW10      30.02F
MAHNOMEN       FAIR      69  54  59 S15       30.02
$$
MNZ006-009>011-018-025>026-021700-
   North Central Minnesota

CITY           SKY/WX    TMP DP  RH WIND       PRES   REMARKS
BAUDETTE       SUNNY     71  56  58 SW8       29.97S
FLAG ISLAND    SUNNY     70  61  73 SW7       29.94S
INTL FALLS     SUNNY     72  60  66 W7        29.98S
WASKISH        MOSUNNY   70  57  64 SW12      30.00S
BIG FORK       SUNNY    N/A N/A N/A SW12      30.01F
LONGVILLE      MOSUNNY   72  55  56 S7        30.03S
GRAND RAPIDS   MOSUNNY   72  55  56 W7        30.03S
CRANE LAKE     SUNNY     68  61  77 N2        30.00F
COOK           SUNNY     70  61  73 W6        30.01S
$$
MNZ012-019>021-037-021700-
   Northeast Minnesota

CITY           SKY/WX    TMP DP  RH WIND       PRES   REMARKS
DULUTH         MOSUNNY   73  57  57 W7        30.03S
ELY              N/A     70  59  68 SW6       30.00F
HIBBING        PTSUNNY   72  58  61 VRB5      30.02S
DULUTH HARBOR  SUNNY     73  63  68 SW9       30.02S
SILVER BAY     SUNNY     73  61  64 CALM      29.99S
GRAND MARAIS     N/A     54  49  83 SW6       29.99F
G MARAIS ARPRT SUNNY     70  55  60 SW5       30.02S
$$
MNZ029>031-032-039>041-046>048-054>057-064-021700-
   West Central Minnesota

CITY           SKY/WX    TMP DP  RH WIND       PRES   REMARKS
FERGUS FALLS   SUNNY     70  55  60 S10       30.01F
WHEATON        MOSUNNY   66  52  59 SE13      30.02F
MORRIS         SUNNY     72  52  49 SE12G17   30.01F
ALEXANDRIA     SUNNY     69  54  58 S13       30.05S
ELBOW LAKE     FAIR      68  54  61 S10       30.02F
WADENA           N/A     70  55  60 S8        30.03S
GLENWOOD       SUNNY     68  55  64 SE7       30.04F
APPLETON       SUNNY     72  48  43 SE7       30.01F
BENSON         SUNNY     70  48  46 S6        30.02F
ORTONVILLE     MOSUNNY   68  46  45 SE6       30.01S
MADISON        SUNNY     68  48  49 SE9       30.01F
WILLMAR        FAIR      70  52  52 S8        30.05S
$$
MNZ033>034-036-042>043-049>051-058-059-021700-
   Central Minnesota

CITY           SKY/WX    TMP DP  RH WIND       PRES   REMARKS
ST CLOUD       SUNNY     70  54  56 S6        30.03F
SAUK CENTRE    FAIR      68  55  63 S6        30.05S
PAYNESVILLE    SUNNY     66  53  62 SE6       30.05S
AITKIN         SUNNY     73  57  56 W5        30.02S
PINE RIVER       N/A     72  55  56 SW3       30.06S
BRAINERD       SUNNY     72  53  51 VRB7      30.04S
STAPLES        SUNNY     70  54  56 S6        30.03F
LONG PRAIRIE   FAIR      68  55  64 S6        30.05S
LITTLE FALLS   SUNNY     70  52  52 SW5       30.04S
LITCHFIELD     SUNNY     70  55  60 SE5       30.04F
BUFFALO        SUNNY     68  54  61 CALM      30.05S
MAPLE LAKE     SUNNY     70  57  63 SE3       30.05S
$$
MNZ037-044-045-052-053-021700-
   East Central Minnesota

CITY           SKY/WX    TMP DP  RH WIND       PRES   REMARKS
PRINCETON      SUNNY     73  55  53 CALM      30.03F
MORA           SUNNY     70  55  60 CALM      30.05S
CAMBRIDGE      SUNNY     73  55  53 CALM      30.02S
RUSH CITY      SUNNY     71  56  59 CALM      30.04S
MOOSE LAKE     MOSUNNY   70  63  78 CALM      30.02F
HINCKLEY       FAIR      72  55  56 SW5       30.04S
CLOQUET        SUNNY     72  55  56 S9        30.03F
MCGREGOR       CLOUDY    72  55  56 SW5       30.04S
$$
MNZ071>073-080-081-089-090-097-098-021700-
   Southwest Minnesota

CITY           SKY/WX    TMP DP  RH WIND       PRES   REMARKS
MONTEVIDEO     SUNNY     70  52  52 S7        30.02F
GRANITE FALLS  SUNNY     67  49  53 SE5       30.04S
CANBY          MOSUNNY   65  53  63 E6        30.03S
MARSHALL       MOSUNNY   66  50  55 SE10      30.01S
REDWOOD FALLS  SUNNY     69  48  47 SE10      30.03R
OLIVIA         SUNNY     68  52  56 S9        30.03R
PIPESTONE      CLOUDY    63  52  67 S6        30.02R
WINDOM         PTSUNNY   66  54  63 E8        30.03R
WORTHINGTON    CLOUDY    63  52  67 SE8       30.02S
JACKSON        CLOUDY    64  54  68 SE8       30.03S
TRACY          PTSUNNY   67  53  60 SE9       30.03R
SLAYTON        CLOUDY    63  54  72 CALM      30.03S
$$
MNZ065>067-074>077-082>085-091>093-021700-
   South Central Minnesota

CITY           SKY/WX    TMP DP  RH WIND       PRES   REMARKS
MANKATO        SUNNY     68  54  60 SE7       30.04F
NEW ULM        SUNNY     66  52  59 SE8       30.02F
ST JAMES       MOSUNNY   70  54  56 SE8       30.04S
FAIRMONT       PTSUNNY   66  48  52 SE9       30.02S
GLENCOE        MOSUNNY   71  56  57 SE5       30.03F
FARIBAULT      SUNNY     70  54  56 CALM      30.05S
OWATONNA       MOSUNNY   70  52  52 SE6       30.05S
WASECA         MOSUNNY   68  54  60 E7        30.06S
ALBERT LEA     PTSUNNY   68  52  56 SE3       30.04F
$$
MNZ078>079-086>088-094>096-021700-
   Southeast Minnesota

CITY           SKY/WX    TMP DP  RH WIND       PRES   REMARKS
ROCHESTER      MOSUNNY   68  54  60 SE6       30.07R
RED WING       SUNNY     70  59  68 CALM      30.03F
DODGE CENTER   MOSUNNY   68  54  60 E3        30.06S
WINONA         SUNNY     70  59  68 CALM      30.06R
AUSTIN         PTSUNNY   66  54  63 SE5       30.05F
PRESTON        MOSUNNY   65  52  63 CALM      30.07S
$$
ABBREVIATIONS USED IN REMARKS
   TC - TEMPERATURES IN CELSIUS
  WCI - WIND CHILL INDEX
   HX - HEAT INDEX
  VSB - VISIBILITY
$$


USA.gov is the U.S. government's official web portal to all federal, state and local government web resources and services.